• Processing (Info)

  • MPEC 2019-M24 : 2019 LE5

    The following Minor Planet Electronic Circular may be linked-to from your own Web pages, but must not otherwise be redistributed electronically.

    A form allowing access to any MPEC is at the bottom of this page.


    Read MPEC 2019-M23 Read MPEC 2019-M25


    M.P.E.C. 2019-M24                                Issued 2019 June 18, 16:16 UT  
    
         The Minor Planet Electronic Circulars contain information on unusual
             minor planets and routine data on comets.  They are published
        on behalf of Division F of the International Astronomical Union by the
              Minor Planet Center, Smithsonian Astrophysical Observatory,
                              Cambridge, MA 02138, U.S.A.
    
                 Prepared using the Tamkin Foundation Computer Network
    
                                  MPC@CFA.HARVARD.EDU
                URL https://www.minorplanetcenter.net/    ISSN 1523-6714
    
                                    2019 LE5                                 
    
    Observations:
         K19L05E* C2019 06 03.58541 20 49 23.073-18 23 06.46         21.9 wUEM024F51
         K19L05E  C2019 06 03.59422 20 49 24.126-18 22 59.72         21.5 wUEM024F51
         K19L05E  C2019 06 03.60303 20 49 25.226-18 22 52.82         22.0 wUEM024F51
         K19L05E KC2019 06 05.12388220 52 43.154-18 02 44.67         20.6 GVEM024J04
         K19L05E KC2019 06 05.13956020 52 45.118-18 02 32.75         21.6 GVEM024J04
         K19L05E KC2019 06 06.16441 20 54 58.94 -17 48 33.1          21.5 GVEM024J04
         K19L05E KC2019 06 06.17429 20 55 00.16 -17 48 24.8          21.3 GVEM024J04
         K19L05E KC2019 06 06.18419 20 55 01.41 -17 48 16.9          21.5 GVEM024J04
         K19L05E |C2019 06 06.33404 20 55 21.10 -17 46 00.5          21.6 VuEM024807
         K19L05E |C2019 06 06.33967 20 55 21.80 -17 45 55.9          21.6 VuEM024807
         K19L05E |C2019 06 06.34545 20 55 22.50 -17 45 50.7          21.8 VuEM024807
         K19L05E KC2019 06 06.38536 20 55 27.96 -17 45 28.8                oEM024711
         K19L05E KC2019 06 06.38963 20 55 28.48 -17 45 24.9                oEM024711
         K19L05E  C2019 06 06.39209 20 55 28.92 -17 45 23.9          21.2 GVEM024I52
         K19L05E KC2019 06 06.39392 20 55 29.03 -17 45 21.9                oEM024711
         K19L05E  C2019 06 06.39681 20 55 29.51 -17 45 19.4          21.3 GVEM024I52
         K19L05E  C2019 06 06.40152 20 55 30.08 -17 45 16.3          21.9 GVEM024I52
         K19L05E ^C2019 06 14.35075 21 13 19.69 -15 43 18.9          21.4 RoEM024695
         K19L05E ^C2019 06 14.35733 21 13 20.59 -15 43 13.1          20.3 RoEM024695
         K19L05E  C2019 06 15.41138 21 15 46.79 -15 25 09.9          21.9 GVEM024I52
         K19L05E  C2019 06 15.41548 21 15 47.47 -15 25 05.3          23.1 GVEM024I52
         K19L05E  C2019 06 15.41756 21 15 47.66 -15 25 04.2                VEM024I52
         K19L05E  C2019 06 15.41965 21 15 47.91 -15 25 02.2                VEM024I52
    
    Observer details:
    695 Kitt Peak.  Observer R. A. Mastaler.  2.3-m f/9 reflector + CCD.
    711 McDonald Observatory, Fort Davis.  Observer J. G. Ries.  
        2.1-m reflector + CCD + focal reducer.
    807 Cerro Tololo Observatory, La Serena.  Observers T. Linder, R. Holmes.  
        0.61-m f/6.5 astrograph + CCD.
    F51 Pan-STARRS 1, Haleakala.  Observers J. Bulger, T. Lowe, A. Schultz,
        M. Willman.  1.8-m Ritchey-Chretien + CCD.
    I52 Steward Observatory, Mt. Lemmon Station.  Observers E. J. Christensen,
        T. A. Pruyne.  1.0-m reflector + CCD.
    J04 ESA Optical Ground Station, Tenerife.  Observers D. Abreu, P. Ruiz.  
        1.0-m f/4.4 reflector + CCD.
    
    Orbital elements:
    2019 LE5                                                 Earth MOID = 0.1270 AU
    Epoch 2019 Apr. 27.0 TT = JDT 2458600.5                 MPC
    M 326.23875              (2000.0)            P               Q
    n   0.25727477     Peri.   73.22354     +0.99094902     +0.11607758
    a   2.4483373      Node   280.07220     -0.13355208     +0.90323715
    e   0.5453352      Incl.    3.92667     +0.01355999     +0.41314483
    P   3.83           H   20.1           G   0.15           U   8
    Residuals in seconds of arc
    190603 F51  0.3+  0.1+    190606 807  0.6+  0.3-    190606 I52  0.3-  0.3-
    190603 F51  0.3-  0.0     190606 807  0.4+  0.4-    190614 695  0.7-  0.6+
    190603 F51  0.2-  0.0     190606 807  0.0   0.0     190614 695  0.5-  0.2-
    190605 J04  0.6+  0.2+    190606 711  0.2-  0.5+    190615 I52  0.4-  0.2+
    190605 J04  0.4+  0.4-    190606 711  0.5-  0.8+    190615 I52  1.5+  0.6+
    190606 J04  0.4+  0.3-    190606 I52  0.2+  0.1-    190615 I52  0.2+  0.5-
    190606 J04  0.0   0.1-    190606 711  0.5-  0.3+    190615 I52  0.3-  0.6-
    190606 J04  0.0   0.4-    190606 I52  0.1+  0.5
    
    Ephemeris:
    2019 LE5                 a,e,i = 2.45, 0.55, 4                   q = 1.1132
    Date    TT    R. A. (2000) Decl.     Delta      r    Elong.  Phase     V
    2019 05 19    20 16 44.9 -21 13 14   0.9304  1.6464   115.9    33.6    22.4
    ...
    2019 06 03    20 48 07.1 -18 30 34   0.7361  1.5403   122.5    33.7    21.8
    ...
    2019 06 11    21 05 41.2 -16 37 31   0.6433  1.4850   125.6    33.8    21.4
    ...
    2019 06 17    21 19 29.5 -14 56 52   0.5791  1.4443   127.7    33.8    21.1
    2019 06 18    21 21 51.5 -14 38 33   0.5688  1.4376   128.0    33.9    21.1
    2019 06 19    21 24 14.9 -14 19 46   0.5587  1.4310   128.3    33.9    21.0
    ...
    2019 06 25    21 39 04.5 -12 16 05   0.5006  1.3917   129.9    34.1    20.7
    ...
    2019 07 03    22 00 27.5 -08 57 18   0.4309  1.3414   131.4    34.6    20.3
    ...
    2019 07 18    22 47 56.7 -00 28 53   0.3260  1.2556   131.3    37.4    19.7
    
    A. U. Tomatic                (C) Copyright 2019 MPC           M.P.E.C. 2019-M24
    


    Read MPEC 2019-M23 Read MPEC 2019-M25


    MPEC number:

    Enter an MPEC number in one of the following forms:

    • 1997-B01 (the full form)
    • J97B01 (the packed version of the full form)
    • B01 (the abbreviated form)